ITY631 KMIA-LIRF

Flight info

Callsign ITY631
Flight time N/A
Altitude 37000
Route FOLZZ3 ZFP DCT BAAGR DCT CNNOR/M080F370 M328 BDA M330 BALOO/M080F390 DCT 36N060W 42N050W 45N040W 47N030W 47N020W DCT BUNAV UN536 TIVLU/N0461F390 DCT GALOF/N0461F400 DCT PECNO DCT VALKU/N0458F390 DCT TIS DCT MEBAK DCT GIPNO DCT BALSI DCT OBIGO DCT ROBEX DCT LAPRI/N0455F400 DCT MOGBO/N0450F390 DCT ELB/N0445F400 DCT ELKAP
Aircraft A332/H-SDE3GHIJ2J3J5M1RVWXY/LB2D1

Departure

Time 2026-05-06 00:54
Airport Miami International Airport (KMIA)

Arrival

Time N/A
Airport Rome–Fiumicino Leonardo da Vinci International Airport (LIRF)
Time Latitude Longitude Altitude Speed Heading
2026-05-06 00:23 25.79156 -80.27609 26 ft 0 kts 268°
2026-05-06 00:39 25.79156 -80.27602 25 ft 3 kts 268°
2026-05-06 00:39 25.79157 -80.27581 27 ft 3 kts 267°
2026-05-06 00:40 25.79157 -80.27559 30 ft 3 kts 264°
2026-05-06 00:40 25.79164 -80.27539 26 ft 3 kts 211°
2026-05-06 00:40 25.79176 -80.27533 29 ft 0 kts 182°
2026-05-06 00:43 25.79172 -80.27533 29 ft 1 kts 180°
2026-05-06 00:44 25.79161 -80.27532 26 ft 2 kts 175°
2026-05-06 00:44 25.79143 -80.27531 29 ft 3 kts 179°
2026-05-06 00:44 25.79113 -80.27531 28 ft 10 kts 180°
2026-05-06 00:44 25.79034 -80.27532 27 ft 11 kts 180°
2026-05-06 00:45 25.78984 -80.27532 30 ft 5 kts 180°
2026-05-06 00:45 25.78950 -80.27532 30 ft 4 kts 182°
2026-05-06 00:45 25.78924 -80.27536 31 ft 4 kts 192°
2026-05-06 00:45 25.78903 -80.27554 26 ft 5 kts 229°
2026-05-06 00:46 25.78891 -80.27598 31 ft 6 kts 260°
2026-05-06 00:46 25.78883 -80.27652 27 ft 8 kts 262°
2026-05-06 00:46 25.78879 -80.27714 25 ft 8 kts 266°
2026-05-06 00:46 25.78876 -80.27776 26 ft 8 kts 266°
2026-05-06 00:47 25.78872 -80.27833 27 ft 7 kts 266°
2026-05-06 00:47 25.78869 -80.27890 28 ft 8 kts 266°
2026-05-06 00:47 25.78878 -80.27942 29 ft 8 kts 287°
2026-05-06 00:47 25.78908 -80.28015 30 ft 12 kts 298°
2026-05-06 00:48 25.78958 -80.28115 29 ft 17 kts 300°
2026-05-06 00:48 25.79023 -80.28241 29 ft 20 kts 300°
2026-05-06 00:48 25.79100 -80.28389 32 ft 25 kts 300°
2026-05-06 00:48 25.79199 -80.28567 24 ft 28 kts 302°
2026-05-06 00:49 25.79301 -80.28751 25 ft 28 kts 300°
2026-05-06 00:49 25.79394 -80.28934 27 ft 26 kts 300°
2026-05-06 00:49 25.79482 -80.29105 25 ft 25 kts 300°
2026-05-06 00:49 25.79566 -80.29266 27 ft 23 kts 300°
2026-05-06 00:50 25.79645 -80.29425 29 ft 24 kts 298°
2026-05-06 00:50 25.79726 -80.29582 28 ft 24 kts 298°
2026-05-06 00:50 25.79809 -80.29746 21 ft 25 kts 298°
2026-05-06 00:50 25.79886 -80.29909 22 ft 23 kts 302°
2026-05-06 00:51 25.79925 -80.29976 20 ft 0 kts 303°
2026-05-06 00:51 25.79929 -80.29983 20 ft 2 kts 303°
2026-05-06 00:51 25.79937 -80.29996 20 ft 2 kts 303°
2026-05-06 00:51 25.79948 -80.30016 20 ft 3 kts 303°
2026-05-06 00:52 25.79971 -80.30055 21 ft 7 kts 303°
2026-05-06 00:52 25.79996 -80.30097 23 ft 6 kts 306°
2026-05-06 00:52 25.80026 -80.30113 23 ft 4 kts 352°
2026-05-06 00:52 25.80061 -80.30101 23 ft 6 kts 34°
2026-05-06 00:53 25.80076 -80.30060 22 ft 6 kts 84°
2026-05-06 00:53 25.80077 -80.29993 22 ft 20 kts 89°
2026-05-06 00:53 25.80096 -80.29622 22 ft 76 kts 86°
2026-05-06 00:53 25.80127 -80.28848 29 ft 124 kts 88°
2026-05-06 00:54 25.80156 -80.27733 75 ft 161 kts 89°
2026-05-06 00:54 25.80138 -80.26471 555 ft 166 kts 91°
2026-05-06 00:54 25.80000 -80.25186 1123 ft 167 kts 105°
2026-05-06 00:54 25.79568 -80.24010 1741 ft 166 kts 114°
2026-05-06 00:55 25.79027 -80.22831 1945 ft 181 kts 116°
2026-05-06 00:55 25.78416 -80.21524 2097 ft 199 kts 115°
2026-05-06 00:55 25.77756 -80.20081 2244 ft 219 kts 116°
2026-05-06 00:55 25.77031 -80.18511 2426 ft 235 kts 116°
2026-05-06 00:56 25.76249 -80.16906 2784 ft 244 kts 117°
2026-05-06 00:56 25.75398 -80.15189 3008 ft 263 kts 117°
2026-05-06 00:56 25.74571 -80.13341 3506 ft 270 kts 109°
2026-05-06 00:56 25.74296 -80.11276 4063 ft 274 kts 83°
2026-05-06 00:57 25.74907 -80.09274 4618 ft 277 kts 56°
2026-05-06 00:57 25.76075 -80.07602 5228 ft 279 kts 47°
2026-05-06 00:57 25.77373 -80.05987 5929 ft 279 kts 45°
2026-05-06 00:57 25.78683 -80.04371 6592 ft 283 kts 45°
2026-05-06 00:58 25.80006 -80.02725 7204 ft 287 kts 46°
2026-05-06 00:58 25.81323 -80.01073 7819 ft 292 kts 46°
2026-05-06 00:58 25.82682 -79.99358 8474 ft 296 kts 46°
2026-05-06 00:58 25.84054 -79.97623 9136 ft 300 kts 46°
2026-05-06 00:59 25.85423 -79.95887 9747 ft 305 kts 46°
2026-05-06 00:59 25.86839 -79.94091 10260 ft 313 kts 46°
2026-05-06 00:59 25.88318 -79.92215 10503 ft 331 kts 46°
2026-05-06 00:59 25.89859 -79.90258 10716 ft 348 kts 46°
2026-05-06 01:00 25.91496 -79.88177 10942 ft 363 kts 46°
2026-05-06 01:00 25.93164 -79.86052 11301 ft 372 kts 46°
2026-05-06 01:00 25.94874 -79.83871 11821 ft 375 kts 46°
2026-05-06 01:00 25.96598 -79.81672 12366 ft 377 kts 46°
2026-05-06 01:01 25.98333 -79.79457 12916 ft 380 kts 46°
2026-05-06 01:01 26.00061 -79.77252 13433 ft 383 kts 46°
2026-05-06 01:01 26.01820 -79.75006 13983 ft 385 kts 46°
2026-05-06 01:01 26.03566 -79.72776 14432 ft 387 kts 46°
2026-05-06 01:02 26.05352 -79.70494 14888 ft 391 kts 46°
2026-05-06 01:02 26.06543 -79.68972 15177 ft 393 kts 46°
2026-05-06 01:02 26.08340 -79.66675 15626 ft 396 kts 46°
2026-05-06 01:02 26.10713 -79.63533 16222 ft 401 kts 50°
2026-05-06 01:03 26.11818 -79.61873 16512 ft 403 kts 51°
2026-05-06 01:03 26.13456 -79.59314 16939 ft 406 kts 52°
2026-05-06 01:03 26.15091 -79.56733 17371 ft 409 kts 52°
2026-05-06 01:03 26.16746 -79.54118 17798 ft 412 kts 52°
2026-05-06 01:04 26.18391 -79.51522 18230 ft 415 kts 51°
2026-05-06 01:04 26.20068 -79.48874 18620 ft 417 kts 51°
2026-05-06 01:04 26.21748 -79.46223 18970 ft 420 kts 51°
2026-05-06 01:04 26.23420 -79.43583 19300 ft 423 kts 51°
2026-05-06 01:05 26.25129 -79.40884 19675 ft 425 kts 51°
2026-05-06 01:05 26.26844 -79.38175 20012 ft 428 kts 51°
2026-05-06 01:05 26.28525 -79.35403 20347 ft 433 kts 55°
2026-05-06 01:05 26.29929 -79.32445 20677 ft 438 kts 60°
2026-05-06 01:06 26.31457 -79.28785 21059 ft 442 kts 62°
2026-05-06 01:06 26.32734 -79.25660 21391 ft 444 kts 62°
2026-05-06 01:06 26.34024 -79.22504 21706 ft 447 kts 62°
2026-05-06 01:06 26.35326 -79.19324 22035 ft 450 kts 62°
2026-05-06 01:07 26.36631 -79.16138 22353 ft 452 kts 61°
2026-05-06 01:07 26.37930 -79.12967 22664 ft 455 kts 61°
2026-05-06 01:07 26.39248 -79.09750 22988 ft 458 kts 61°
2026-05-06 01:07 26.40586 -79.06483 23288 ft 460 kts 61°
2026-05-06 01:08 26.41918 -79.03227 23564 ft 464 kts 61°
2026-05-06 01:08 26.43257 -78.99953 23813 ft 467 kts 61°
2026-05-06 01:08 26.44610 -78.96641 24126 ft 468 kts 61°
2026-05-06 01:08 26.45954 -78.93351 24387 ft 470 kts 61°
2026-05-06 01:09 26.47315 -78.90013 24677 ft 472 kts 61°
2026-05-06 01:09 26.48680 -78.86664 24976 ft 473 kts 61°
2026-05-06 01:09 26.50030 -78.83349 25250 ft 474 kts 61°
2026-05-06 01:09 26.51408 -78.79963 25528 ft 476 kts 60°
2026-05-06 01:10 26.52763 -78.76631 25798 ft 477 kts 60°
2026-05-06 01:10 26.54139 -78.73239 26076 ft 479 kts 61°
2026-05-06 01:10 26.55323 -78.69724 26342 ft 486 kts 70°
2026-05-06 01:10 26.56076 -78.66014 26604 ft 491 kts 75°
2026-05-06 01:11 26.56644 -78.62279 26846 ft 495 kts 77°
2026-05-06 01:11 26.57132 -78.58453 27104 ft 497 kts 78°
2026-05-06 01:11 26.57584 -78.54619 27359 ft 499 kts 78°
2026-05-06 01:11 26.58033 -78.50761 27609 ft 500 kts 78°
2026-05-06 01:12 26.58491 -78.46894 27860 ft 502 kts 78°
2026-05-06 01:12 26.58962 -78.43014 28105 ft 504 kts 78°
2026-05-06 01:12 26.59437 -78.39172 28345 ft 505 kts 78°
2026-05-06 01:12 26.59926 -78.35262 28562 ft 507 kts 77°
2026-05-06 01:13 26.60418 -78.31351 28813 ft 508 kts 77°
2026-05-06 01:13 26.60912 -78.27424 29061 ft 510 kts 77°
2026-05-06 01:13 26.61403 -78.23515 29256 ft 512 kts 77°
2026-05-06 01:13 26.61900 -78.19547 29485 ft 513 kts 77°
2026-05-06 01:14 26.62885 -78.11642 29920 ft 516 kts 77°
2026-05-06 01:14 26.63375 -78.07691 30121 ft 518 kts 77°
2026-05-06 01:14 26.63872 -78.03674 30294 ft 520 kts 77°
2026-05-06 01:15 26.64368 -77.99662 30457 ft 521 kts 77°
2026-05-06 01:15 26.64865 -77.95627 30634 ft 523 kts 77°
2026-05-06 01:15 26.65356 -77.91634 30762 ft 525 kts 77°
2026-05-06 01:15 26.65856 -77.87554 30929 ft 527 kts 77°
2026-05-06 01:16 26.66354 -77.83477 31170 ft 527 kts 77°
2026-05-06 01:16 26.66843 -77.79461 31440 ft 526 kts 77°
2026-05-06 01:16 26.67335 -77.75404 31698 ft 525 kts 77°
2026-05-06 01:16 26.67825 -77.71353 31952 ft 525 kts 77°
2026-05-06 01:17 26.68316 -77.67297 32209 ft 524 kts 77°
2026-05-06 01:17 26.68806 -77.63240 32459 ft 524 kts 77°
2026-05-06 01:17 26.69286 -77.59258 32714 ft 523 kts 76°
2026-05-06 01:17 26.69772 -77.55222 32949 ft 523 kts 77°
2026-05-06 01:18 26.70257 -77.51176 33199 ft 522 kts 77°
2026-05-06 01:18 26.70740 -77.47136 33454 ft 521 kts 76°
2026-05-06 01:18 26.71213 -77.43169 33692 ft 521 kts 76°
2026-05-06 01:18 26.71693 -77.39136 33925 ft 520 kts 76°
2026-05-06 01:19 26.72171 -77.35112 34135 ft 520 kts 76°
2026-05-06 01:19 26.72647 -77.31090 34322 ft 520 kts 76°
2026-05-06 01:19 26.73117 -77.27120 34484 ft 520 kts 76°
2026-05-06 01:19 26.73593 -77.23087 34656 ft 520 kts 76°
2026-05-06 01:20 26.74065 -77.19075 34839 ft 520 kts 76°
2026-05-06 01:20 26.74537 -77.15046 35024 ft 520 kts 76°
2026-05-06 01:20 26.75002 -77.11076 35176 ft 520 kts 76°
2026-05-06 01:20 26.75472 -77.07048 35341 ft 520 kts 76°
2026-05-06 01:21 26.75936 -77.03065 35494 ft 520 kts 76°
2026-05-06 01:21 26.76402 -76.99046 35660 ft 520 kts 76°
2026-05-06 01:21 26.77177 -76.92356 35905 ft 520 kts 76°
2026-05-06 01:22 26.77792 -76.87019 36100 ft 520 kts 76°
2026-05-06 01:22 26.78099 -76.84353 36201 ft 520 kts 76°
2026-05-06 01:22 26.78559 -76.80350 36366 ft 520 kts 76°
2026-05-06 01:22 26.79020 -76.76321 36499 ft 520 kts 76°
2026-05-06 01:23 26.79479 -76.72301 36635 ft 520 kts 76°
2026-05-06 01:23 26.79937 -76.68278 36775 ft 520 kts 76°
2026-05-06 01:23 26.80390 -76.64291 36906 ft 520 kts 76°
2026-05-06 01:23 26.80847 -76.60259 37030 ft 520 kts 75°
2026-05-06 01:24 26.82346 -76.52500 37060 ft 501 kts 59°
2026-05-06 01:24 26.83847 -76.49026 37076 ft 487 kts 50°
2026-05-06 01:24 26.85618 -76.45796 37062 ft 483 kts 48°
2026-05-06 01:25 26.89356 -76.39591 37061 ft 482 kts 46°
2026-05-06 01:25 26.93179 -76.33450 37064 ft 482 kts 46°
2026-05-06 01:26 26.97002 -76.27258 37064 ft 482 kts 46°
2026-05-06 01:26 27.00808 -76.21029 37067 ft 482 kts 46°
2026-05-06 01:27 27.04566 -76.14851 37067 ft 482 kts 47°
2026-05-06 01:27 27.08363 -76.08600 37069 ft 483 kts 47°
2026-05-06 01:28 27.12126 -76.02394 37064 ft 483 kts 47°
2026-05-06 01:28 27.15913 -75.96141 37065 ft 483 kts 47°
2026-05-06 01:29 27.19678 -75.89918 37070 ft 483 kts 47°
2026-05-06 01:29 27.23443 -75.83686 37070 ft 483 kts 47°
2026-05-06 01:30 27.27232 -75.77408 37083 ft 483 kts 47°
2026-05-06 01:30 27.30985 -75.71177 37073 ft 484 kts 47°
2026-05-06 01:31 27.34759 -75.64905 37073 ft 484 kts 47°
2026-05-06 01:31 27.38535 -75.58619 37075 ft 484 kts 47°
2026-05-06 01:32 27.42292 -75.52356 37075 ft 484 kts 47°
2026-05-06 01:32 27.46066 -75.46057 37080 ft 484 kts 47°
2026-05-06 01:33 27.49823 -75.39776 37065 ft 484 kts 47°
2026-05-06 01:33 27.53579 -75.33488 37089 ft 485 kts 47°
2026-05-06 01:34 27.57359 -75.27151 37090 ft 485 kts 48°
2026-05-06 01:34 27.61101 -75.20867 37084 ft 483 kts 47°
2026-05-06 01:35 27.64858 -75.14548 37089 ft 483 kts 48°
2026-05-06 01:35 27.68583 -75.08278 37087 ft 483 kts 48°
2026-05-06 01:36 27.72327 -75.01965 37093 ft 484 kts 47°
2026-05-06 01:36 27.76063 -74.95659 37088 ft 484 kts 47°
2026-05-06 01:37 27.79812 -74.89318 37091 ft 484 kts 47°
2026-05-06 01:37 27.83536 -74.83008 37108 ft 484 kts 47°
2026-05-06 01:38 27.87267 -74.76633 37097 ft 484 kts 47°
2026-05-06 01:38 27.90955 -74.70301 37097 ft 484 kts 47°
2026-05-06 01:39 27.94644 -74.63961 37100 ft 484 kts 47°
2026-05-06 01:39 27.98345 -74.57596 37099 ft 484 kts 47°
2026-05-06 01:40 28.02046 -74.51222 37105 ft 484 kts 48°
2026-05-06 01:40 28.05726 -74.44876 37104 ft 484 kts 48°
2026-05-06 01:41 28.09418 -74.38497 37114 ft 483 kts 47°
2026-05-06 01:41 28.13083 -74.32158 37109 ft 483 kts 47°
2026-05-06 01:42 28.16788 -74.25744 37107 ft 485 kts 47°
2026-05-06 01:42 28.20467 -74.19361 37109 ft 485 kts 47°
2026-05-06 01:43 28.24164 -74.12936 37109 ft 485 kts 47°
2026-05-06 01:43 28.27837 -74.06540 37113 ft 485 kts 47°
2026-05-06 01:44 28.31536 -74.00092 37146 ft 485 kts 47°
2026-05-06 01:44 28.35203 -73.93691 37116 ft 488 kts 47°
2026-05-06 01:45 28.38915 -73.87204 37117 ft 489 kts 47°
2026-05-06 01:45 28.42598 -73.80751 37121 ft 489 kts 47°
2026-05-06 01:46 28.46316 -73.74227 37121 ft 489 kts 47°
2026-05-06 01:46 28.49992 -73.67769 37127 ft 489 kts 47°
2026-05-06 01:47 28.53702 -73.61241 37174 ft 490 kts 47°
2026-05-06 01:47 28.57395 -73.54737 37129 ft 492 kts 47°
2026-05-06 01:48 28.61090 -73.48214 37126 ft 492 kts 47°
2026-05-06 01:48 28.64803 -73.41649 37121 ft 492 kts 47°
2026-05-06 01:49 28.68491 -73.35119 37135 ft 492 kts 47°
2026-05-06 01:49 28.71860 -73.29147 37140 ft 492 kts 47°
2026-05-06 01:50 28.75575 -73.22553 37138 ft 494 kts 47°
2026-05-06 01:50 28.79264 -73.15993 37138 ft 494 kts 47°
2026-05-06 01:51 28.82977 -73.09376 37138 ft 493 kts 47°
2026-05-06 01:51 28.86651 -73.02820 37143 ft 493 kts 48°
2026-05-06 01:52 28.90364 -72.96186 37140 ft 493 kts 48°
2026-05-06 01:52 28.94047 -72.89599 37145 ft 495 kts 48°
2026-05-06 01:53 28.97745 -72.82972 37148 ft 496 kts 48°
2026-05-06 01:53 29.01466 -72.76288 37152 ft 496 kts 48°
2026-05-06 01:54 29.05154 -72.69652 37151 ft 495 kts 48°
2026-05-06 01:54 29.08839 -72.63015 37154 ft 495 kts 48°
2026-05-06 01:55 29.12518 -72.56379 37154 ft 496 kts 49°
2026-05-06 01:55 29.16228 -72.49680 37154 ft 498 kts 49°
2026-05-06 01:56 29.19942 -72.42956 37157 ft 498 kts 49°
2026-05-06 01:56 29.23634 -72.36261 37160 ft 498 kts 49°
2026-05-06 01:57 29.27305 -72.29591 37160 ft 497 kts 49°
2026-05-06 01:57 29.31011 -72.22855 37168 ft 497 kts 49°
2026-05-06 01:58 29.34685 -72.16165 37164 ft 498 kts 49°
2026-05-06 01:58 29.38364 -72.09450 37163 ft 499 kts 49°
2026-05-06 01:59 29.42058 -72.02697 37165 ft 499 kts 50°
2026-05-06 01:59 29.45752 -71.95932 37166 ft 499 kts 50°
2026-05-06 02:00 29.49412 -71.89221 37177 ft 498 kts 50°
2026-05-06 02:00 29.53109 -71.82430 37174 ft 499 kts 50°
2026-05-06 02:01 29.56776 -71.75685 37168 ft 499 kts 50°
2026-05-06 02:01 29.60442 -71.68929 37170 ft 499 kts 50°
2026-05-06 02:02 29.64099 -71.62179 37169 ft 499 kts 50°
2026-05-06 02:02 29.67766 -71.55397 37178 ft 497 kts 51°
2026-05-06 02:03 29.71395 -71.48672 37171 ft 495 kts 51°
2026-05-06 02:03 29.75039 -71.41914 37173 ft 496 kts 51°
2026-05-06 02:04 29.78680 -71.35149 37173 ft 496 kts 51°
2026-05-06 02:04 29.82291 -71.28428 37173 ft 495 kts 51°
2026-05-06 02:05 29.85901 -71.21697 37178 ft 496 kts 51°
2026-05-06 02:05 29.89531 -71.14917 37178 ft 494 kts 52°
2026-05-06 02:06 29.93116 -71.08209 37181 ft 493 kts 52°
2026-05-06 02:06 29.96718 -71.01460 37181 ft 493 kts 52°
2026-05-06 02:07 30.00300 -70.94738 37184 ft 493 kts 52°
2026-05-06 02:07 30.03893 -70.87983 37187 ft 493 kts 52°
2026-05-06 02:08 30.07475 -70.81246 37181 ft 494 kts 52°
2026-05-06 02:08 30.11075 -70.74450 37179 ft 494 kts 52°
2026-05-06 02:09 30.14634 -70.67718 37182 ft 492 kts 52°
2026-05-06 02:09 30.18194 -70.60980 37185 ft 492 kts 52°
2026-05-06 02:10 30.21772 -70.54197 37181 ft 492 kts 52°
2026-05-06 02:10 30.25325 -70.47449 37183 ft 495 kts 53°
2026-05-06 02:11 30.28921 -70.40611 37202 ft 496 kts 53°
2026-05-06 02:11 30.32489 -70.33807 37185 ft 494 kts 53°
2026-05-06 02:12 30.36043 -70.27020 37187 ft 494 kts 53°
2026-05-06 02:12 30.39592 -70.20234 37187 ft 494 kts 53°
2026-05-06 02:13 30.43163 -70.13394 37191 ft 497 kts 53°
2026-05-06 02:13 30.46733 -70.06546 37188 ft 498 kts 53°
2026-05-06 02:14 30.50331 -69.99629 37212 ft 498 kts 54°
2026-05-06 02:14 30.53879 -69.92792 37187 ft 496 kts 54°
2026-05-06 02:15 30.57447 -69.85909 37181 ft 495 kts 54°
2026-05-06 02:15 30.60997 -69.79055 37190 ft 499 kts 54°
2026-05-06 02:16 30.64577 -69.72126 37188 ft 500 kts 54°
2026-05-06 02:16 30.68143 -69.65208 37193 ft 500 kts 54°
2026-05-06 02:17 30.71707 -69.58282 37186 ft 499 kts 54°
2026-05-06 02:17 30.75249 -69.51385 37186 ft 498 kts 55°
2026-05-06 02:18 30.78825 -69.44418 37189 ft 501 kts 55°
2026-05-06 02:18 30.82391 -69.37456 37189 ft 502 kts 55°
2026-05-06 02:19 30.85949 -69.30492 37190 ft 502 kts 56°
2026-05-06 02:19 30.89528 -69.23474 37190 ft 502 kts 56°
2026-05-06 02:20 30.94865 -69.12989 37193 ft 504 kts 56°
2026-05-06 02:21 30.98436 -69.05960 37193 ft 506 kts 56°
2026-05-06 02:21 31.02028 -68.98875 37195 ft 506 kts 57°
2026-05-06 02:22 31.05597 -68.91820 37195 ft 505 kts 57°
2026-05-06 02:22 31.09153 -68.84782 37187 ft 506 kts 57°
2026-05-06 02:23 31.12744 -68.77666 37196 ft 508 kts 57°
2026-05-06 02:23 31.16317 -68.70562 37194 ft 509 kts 58°
2026-05-06 02:24 31.19905 -68.63416 37191 ft 509 kts 58°
2026-05-06 02:24 31.23474 -68.56297 37193 ft 509 kts 58°
2026-05-06 02:25 31.27039 -68.49177 37195 ft 510 kts 58°
2026-05-06 02:25 31.30639 -68.41972 37196 ft 512 kts 58°
2026-05-06 02:26 31.34201 -68.34825 37195 ft 511 kts 58°
2026-05-06 02:26 31.37785 -68.27621 37194 ft 510 kts 58°
2026-05-06 02:27 31.41347 -68.20451 37194 ft 510 kts 58°
2026-05-06 02:27 31.44936 -68.13214 37196 ft 514 kts 59°
2026-05-06 02:28 31.48329 -68.05866 37194 ft 516 kts 69°
2026-05-06 02:28 31.50745 -67.97997 37194 ft 515 kts 72°
2026-05-06 02:29 31.52964 -67.89981 37195 ft 515 kts 73°
2026-05-06 02:29 31.55129 -67.81985 37196 ft 515 kts 73°
2026-05-06 02:30 31.57300 -67.73997 37196 ft 515 kts 73°
2026-05-06 02:30 31.59493 -67.65960 37189 ft 515 kts 73°
2026-05-06 02:31 31.61674 -67.57961 37194 ft 515 kts 73°
2026-05-06 02:31 31.63845 -67.49981 37196 ft 516 kts 74°
2026-05-06 02:32 31.66031 -67.41917 37191 ft 517 kts 74°
2026-05-06 02:32 31.68198 -67.33901 37187 ft 517 kts 74°
2026-05-06 02:33 31.70365 -67.25863 37191 ft 517 kts 74°
2026-05-06 02:33 31.71086 -67.23181 37189 ft 517 kts 74°
2026-05-06 02:34 31.74696 -67.09728 37187 ft 519 kts 75°
2026-05-06 02:34 31.76496 -67.02992 37192 ft 519 kts 75°
2026-05-06 02:35 31.78654 -66.94901 37211 ft 519 kts 75°
2026-05-06 02:35 31.80811 -66.86794 37179 ft 518 kts 76°
2026-05-06 02:36 31.82954 -66.78709 37191 ft 520 kts 76°
2026-05-06 02:36 31.85115 -66.70534 37186 ft 521 kts 76°
2026-05-06 02:37 31.87254 -66.62423 37188 ft 520 kts 76°
2026-05-06 02:37 31.89385 -66.54318 37184 ft 521 kts 76°
2026-05-06 02:38 31.91531 -66.46130 37183 ft 523 kts 76°
2026-05-06 02:38 31.93663 -66.37969 37194 ft 523 kts 76°
2026-05-06 02:39 31.95789 -66.29816 37188 ft 521 kts 76°
2026-05-06 02:39 31.97921 -66.21615 37194 ft 521 kts 77°
2026-05-06 02:40 32.00039 -66.13431 37190 ft 524 kts 77°
2026-05-06 02:40 32.02158 -66.05227 37179 ft 524 kts 77°
2026-05-06 02:41 32.04270 -65.97028 37192 ft 524 kts 77°
2026-05-06 02:41 32.06375 -65.88833 37180 ft 525 kts 77°
2026-05-06 02:42 32.08491 -65.80564 37184 ft 525 kts 77°
2026-05-06 02:42 32.10587 -65.72360 37179 ft 523 kts 77°
2026-05-06 02:43 32.12688 -65.64104 37174 ft 523 kts 78°
2026-05-06 02:43 32.14771 -65.55895 37176 ft 525 kts 78°
2026-05-06 02:44 32.16855 -65.47651 37181 ft 526 kts 78°
2026-05-06 02:44 32.18951 -65.39343 37178 ft 526 kts 78°
2026-05-06 02:45 32.21025 -65.31095 37199 ft 526 kts 78°
2026-05-06 02:45 32.23098 -65.22824 37176 ft 526 kts 78°
2026-05-06 02:46 32.25178 -65.14502 37173 ft 527 kts 78°
2026-05-06 02:46 32.27241 -65.06221 37173 ft 527 kts 78°
2026-05-06 02:47 32.29316 -64.97868 37154 ft 527 kts 78°
2026-05-06 02:47 32.31373 -64.89558 37165 ft 529 kts 79°
2026-05-06 02:48 32.33427 -64.81237 37165 ft 530 kts 79°
2026-05-06 02:48 32.35603 -64.72869 37161 ft 533 kts 71°
2026-05-06 02:48 32.37247 -64.68980 37158 ft 537 kts 60°
2026-05-06 02:49 32.39502 -64.65425 37160 ft 539 kts 50°
2026-05-06 02:49 32.44579 -64.58914 37156 ft 541 kts 46°
2026-05-06 02:50 32.49905 -64.52552 37155 ft 541 kts 45°
2026-05-06 02:50 32.55197 -64.46236 37157 ft 541 kts 46°
2026-05-06 02:51 32.60446 -64.39893 37157 ft 538 kts 46°
2026-05-06 02:51 32.65664 -64.33543 37145 ft 539 kts 46°
2026-05-06 02:52 32.70914 -64.27133 37160 ft 544 kts 46°
2026-05-06 02:52 32.76205 -64.20665 37165 ft 543 kts 46°
2026-05-06 02:53 32.81424 -64.14276 37162 ft 540 kts 46°
2026-05-06 02:53 32.86643 -64.07876 37162 ft 540 kts 46°
2026-05-06 02:54 32.91885 -64.01435 37181 ft 542 kts 47°
2026-05-06 02:54 32.97153 -63.94949 37164 ft 546 kts 47°
2026-05-06 02:55 33.02438 -63.88434 37168 ft 546 kts 47°
2026-05-06 02:55 33.07691 -63.81945 37166 ft 545 kts 47°
2026-05-06 02:56 33.12978 -63.75402 37164 ft 545 kts 47°
2026-05-06 02:56 33.18232 -63.68888 37163 ft 549 kts 47°
2026-05-06 02:57 33.23530 -63.62304 37162 ft 553 kts 47°
2026-05-06 02:57 33.28854 -63.55679 37190 ft 553 kts 47°
2026-05-06 02:58 33.34166 -63.49055 37159 ft 549 kts 47°
2026-05-06 02:58 33.39463 -63.42440 37128 ft 548 kts 48°
2026-05-06 02:59 33.44747 -63.35825 37164 ft 553 kts 48°
2026-05-06 02:59 33.50055 -63.29167 37160 ft 554 kts 47°
2026-05-06 03:00 33.55369 -63.22492 37163 ft 550 kts 48°
2026-05-06 03:00 33.60656 -63.15837 37172 ft 550 kts 48°
2026-05-06 03:01 33.65910 -63.09211 37191 ft 552 kts 48°
2026-05-06 03:01 33.71228 -63.02491 37165 ft 553 kts 48°
2026-05-06 03:02 33.76504 -62.95812 37163 ft 553 kts 48°
2026-05-06 03:02 33.81819 -62.89071 37170 ft 553 kts 48°
2026-05-06 03:03 33.87084 -62.82380 37134 ft 552 kts 48°
2026-05-06 03:03 33.92349 -62.75679 37151 ft 552 kts 48°
2026-05-06 03:04 33.97643 -62.68924 37175 ft 553 kts 49°
2026-05-06 03:04 34.02897 -62.62206 37174 ft 553 kts 48°
2026-05-06 03:05 34.08178 -62.55442 37168 ft 552 kts 48°
2026-05-06 03:05 34.13450 -62.48679 37172 ft 553 kts 49°
2026-05-06 03:06 34.18704 -62.41923 37174 ft 554 kts 49°
2026-05-06 03:06 34.23963 -62.35147 37179 ft 553 kts 49°
2026-05-06 03:07 34.29237 -62.28340 37172 ft 552 kts 49°
2026-05-06 03:07 34.34471 -62.21572 37154 ft 552 kts 49°
2026-05-06 03:08 34.39707 -62.14786 37189 ft 554 kts 49°
2026-05-06 03:08 34.44982 -62.07934 37191 ft 554 kts 49°
2026-05-06 03:09 34.50222 -62.01108 37173 ft 554 kts 49°
2026-05-06 03:09 34.55487 -61.94234 37199 ft 554 kts 49°
2026-05-06 03:10 34.60704 -61.87412 37195 ft 555 kts 49°
2026-05-06 03:10 34.65977 -61.80503 37196 ft 556 kts 49°
2026-05-06 03:11 34.71220 -61.73620 37202 ft 556 kts 49°
2026-05-06 03:11 34.76447 -61.66743 37204 ft 555 kts 49°
2026-05-06 03:12 34.81694 -61.59828 37211 ft 554 kts 49°
2026-05-06 03:12 34.86899 -61.52952 37214 ft 554 kts 49°
2026-05-06 03:13 34.92099 -61.46069 37214 ft 554 kts 49°
2026-05-06 03:13 34.97333 -61.39128 37214 ft 554 kts 49°
2026-05-06 03:14 35.02525 -61.32228 37194 ft 554 kts 49°
2026-05-06 03:14 35.07763 -61.25253 37212 ft 556 kts 49°
2026-05-06 03:15 35.12980 -61.18292 37230 ft 556 kts 49°
2026-05-06 03:15 35.18179 -61.11342 37213 ft 556 kts 49°
2026-05-06 03:16 35.23410 -61.04333 37238 ft 556 kts 49°
2026-05-06 03:16 35.28604 -60.97360 37229 ft 556 kts 49°
2026-05-06 03:17 35.33794 -60.90377 37235 ft 557 kts 49°
2026-05-06 03:17 35.39017 -60.83337 37271 ft 557 kts 49°
2026-05-06 03:18 35.44193 -60.76344 37237 ft 555 kts 50°
2026-05-06 03:18 35.49375 -60.69330 37242 ft 556 kts 50°
2026-05-06 03:19 35.54594 -60.62249 37245 ft 558 kts 50°
2026-05-06 03:19 35.59787 -60.55191 37246 ft 558 kts 50°
2026-05-06 03:20 35.67566 -60.44589 37243 ft 558 kts 50°
2026-05-06 03:20 35.72780 -60.37463 37251 ft 560 kts 50°
2026-05-06 03:21 35.77120 -60.31522 37270 ft 559 kts 50°
2026-05-06 03:21 35.82313 -60.24399 37257 ft 559 kts 50°
2026-05-06 03:22 35.87494 -60.17276 37259 ft 559 kts 50°
2026-05-06 03:22 35.92687 -60.10122 37265 ft 559 kts 50°
2026-05-06 03:23 35.97858 -60.02984 37272 ft 559 kts 50°
2026-05-06 03:23 36.03019 -59.95754 37279 ft 559 kts 51°
2026-05-06 03:24 36.08061 -59.88490 37249 ft 558 kts 51°
2026-05-06 03:24 36.13125 -59.81153 37268 ft 559 kts 51°
2026-05-06 03:25 36.18164 -59.73857 37298 ft 560 kts 51°
2026-05-06 03:25 36.23213 -59.66546 37282 ft 559 kts 51°
2026-05-06 03:26 36.28289 -59.59184 37266 ft 559 kts 51°
2026-05-06 03:26 36.33325 -59.51862 37297 ft 561 kts 51°
2026-05-06 03:27 36.38373 -59.44507 37286 ft 561 kts 51°
2026-05-06 03:27 36.43447 -59.37098 37292 ft 561 kts 51°
2026-05-06 03:28 36.48486 -59.29723 37284 ft 561 kts 51°
2026-05-06 03:28 36.53524 -59.22331 37304 ft 563 kts 51°
2026-05-06 03:29 36.58600 -59.14871 37301 ft 563 kts 51°
2026-05-06 03:29 36.63640 -59.07445 37306 ft 563 kts 51°
2026-05-06 03:30 36.68704 -58.99969 37300 ft 563 kts 51°
2026-05-06 03:30 36.73735 -58.92523 37302 ft 563 kts 51°
2026-05-06 03:31 36.78763 -58.85065 37315 ft 564 kts 51°
2026-05-06 03:31 36.83812 -58.77560 37312 ft 563 kts 51°
2026-05-06 03:32 36.88826 -58.70089 37310 ft 563 kts 51°
2026-05-06 03:32 36.93865 -58.62565 37327 ft 563 kts 51°
2026-05-06 03:33 36.98871 -58.55073 37317 ft 563 kts 51°
2026-05-06 03:33 37.03877 -58.47564 37303 ft 563 kts 51°
2026-05-06 03:34 37.08895 -58.40018 37323 ft 564 kts 51°
2026-05-06 03:34 37.13928 -58.32435 37320 ft 564 kts 51°
2026-05-06 03:35 37.18919 -58.24898 37325 ft 564 kts 51°
2026-05-06 03:35 37.23913 -58.17337 37320 ft 564 kts 51°
2026-05-06 03:36 37.28928 -58.09728 37328 ft 564 kts 51°
2026-05-06 03:36 37.33926 -58.02128 37329 ft 564 kts 51°
2026-05-06 03:37 37.38911 -57.94530 37336 ft 564 kts 51°
2026-05-06 03:37 37.43880 -57.86939 37332 ft 564 kts 51°
2026-05-06 03:38 37.48889 -57.79268 37330 ft 565 kts 51°
2026-05-06 03:38 37.53850 -57.71653 37340 ft 564 kts 51°
2026-05-06 03:39 37.58811 -57.64021 37309 ft 564 kts 50°
2026-05-06 03:39 37.63792 -57.56340 37361 ft 565 kts 50°
2026-05-06 03:40 37.68764 -57.48655 37339 ft 565 kts 50°
2026-05-06 03:40 37.73713 -57.40988 37347 ft 565 kts 51°
2026-05-06 03:41 37.78664 -57.33300 37353 ft 565 kts 50°
2026-05-06 03:41 37.83653 -57.25534 37344 ft 565 kts 50°
2026-05-06 03:42 37.88583 -57.17843 37345 ft 565 kts 50°
2026-05-06 03:42 37.93537 -57.10095 37327 ft 565 kts 50°
2026-05-06 03:43 37.98487 -57.02335 37350 ft 565 kts 50°
2026-05-06 03:43 38.03401 -56.94613 37381 ft 565 kts 50°
2026-05-06 03:44 38.08351 -56.86816 37346 ft 565 kts 50°
2026-05-06 03:44 38.13263 -56.79060 37348 ft 565 kts 50°
2026-05-06 03:45 38.18183 -56.71273 37374 ft 565 kts 50°
2026-05-06 03:45 38.23084 -56.63498 37360 ft 565 kts 50°
2026-05-06 03:46 38.27990 -56.55696 37343 ft 565 kts 50°
2026-05-06 03:46 38.32922 -56.47835 37370 ft 565 kts 50°
2026-05-06 03:47 38.37802 -56.40036 37366 ft 565 kts 50°
2026-05-06 03:47 38.42710 -56.32176 37379 ft 565 kts 50°
2026-05-06 03:48 38.47592 -56.24335 37358 ft 565 kts 50°
2026-05-06 03:48 38.52471 -56.16483 37370 ft 565 kts 50°
2026-05-06 03:49 38.57341 -56.08625 37366 ft 565 kts 50°
2026-05-06 03:49 38.62234 -56.00710 37372 ft 566 kts 50°
2026-05-06 03:50 38.67095 -55.92829 37375 ft 566 kts 50°
2026-05-06 03:50 38.71963 -55.84915 37376 ft 565 kts 50°
2026-05-06 03:51 38.76802 -55.77032 37360 ft 564 kts 50°
2026-05-06 03:51 38.81676 -55.69070 37389 ft 565 kts 50°
2026-05-06 03:52 38.86502 -55.61167 37382 ft 564 kts 50°
2026-05-06 03:52 38.91353 -55.53204 37384 ft 564 kts 50°
2026-05-06 03:53 38.96160 -55.45294 37385 ft 564 kts 50°
2026-05-06 03:53 39.00998 -55.37312 37387 ft 564 kts 50°
2026-05-06 03:54 39.05798 -55.29375 37405 ft 564 kts 50°
2026-05-06 03:54 39.10614 -55.21389 37388 ft 563 kts 49°
2026-05-06 03:55 39.15393 -55.13448 37392 ft 563 kts 50°
2026-05-06 03:55 39.20207 -55.05428 37392 ft 563 kts 50°
2026-05-06 03:56 39.24987 -54.97442 37388 ft 564 kts 49°
2026-05-06 03:56 39.29760 -54.89451 37410 ft 564 kts 49°
2026-05-06 03:57 39.34547 -54.81412 37401 ft 563 kts 50°
2026-05-06 03:57 39.39312 -54.73393 37401 ft 563 kts 50°
2026-05-06 03:58 39.44067 -54.65371 37400 ft 562 kts 49°
2026-05-06 03:58 39.48840 -54.57296 37398 ft 562 kts 50°
2026-05-06 03:59 39.53563 -54.49287 37409 ft 562 kts 49°
2026-05-06 03:59 39.58293 -54.41245 37400 ft 561 kts 49°
2026-05-06 04:00 39.63006 -54.33213 37401 ft 561 kts 50°
2026-05-06 04:00 39.67744 -54.25116 37409 ft 561 kts 49°
2026-05-06 04:01 39.72440 -54.17071 37409 ft 560 kts 49°
2026-05-06 04:01 39.77131 -54.09014 37419 ft 560 kts 49°
2026-05-06 04:02 39.81832 -54.00920 37411 ft 559 kts 49°
2026-05-06 04:02 39.86500 -53.92862 37415 ft 559 kts 49°
2026-05-06 04:03 39.91198 -53.84731 37415 ft 559 kts 49°
2026-05-06 04:03 39.95848 -53.76660 37414 ft 558 kts 49°
2026-05-06 04:04 40.00521 -53.68530 37416 ft 558 kts 49°
2026-05-06 04:04 40.05155 -53.60448 37419 ft 557 kts 49°
2026-05-06 04:05 40.09783 -53.52355 37422 ft 557 kts 49°
2026-05-06 04:05 40.14397 -53.44266 37421 ft 556 kts 49°
2026-05-06 04:06 40.19025 -53.36131 37424 ft 555 kts 49°
2026-05-06 04:06 40.23615 -53.28042 37424 ft 555 kts 49°
2026-05-06 04:07 40.28200 -53.19942 37433 ft 555 kts 49°
2026-05-06 04:07 40.32799 -53.11797 37433 ft 555 kts 49°
2026-05-06 04:08 40.37393 -53.03636 37439 ft 555 kts 49°
2026-05-06 04:08 40.41961 -52.95504 37437 ft 555 kts 49°
2026-05-06 04:09 40.46526 -52.87353 37433 ft 555 kts 49°
2026-05-06 04:09 40.50335 -52.80537 37444 ft 555 kts 49°
2026-05-06 04:10 40.54905 -52.72337 37443 ft 555 kts 49°
2026-05-06 04:10 40.59446 -52.64170 37441 ft 555 kts 49°
2026-05-06 04:11 40.64009 -52.55941 37451 ft 554 kts 49°
2026-05-06 04:11 40.68529 -52.47768 37446 ft 554 kts 49°
2026-05-06 04:12 40.73074 -52.39528 37449 ft 554 kts 50°
2026-05-06 04:12 40.77588 -52.31321 37450 ft 554 kts 49°
2026-05-06 04:13 40.82088 -52.23121 37452 ft 553 kts 50°
2026-05-06 04:13 40.86618 -52.14843 37443 ft 553 kts 49°
2026-05-06 04:14 40.91106 -52.06618 37463 ft 553 kts 50°
2026-05-06 04:14 40.95585 -51.98389 37448 ft 553 kts 50°
2026-05-06 04:15 41.00089 -51.90094 37454 ft 553 kts 49°
2026-05-06 04:15 41.04546 -51.81859 37453 ft 552 kts 49°
2026-05-06 04:16 41.09039 -51.73540 37461 ft 552 kts 50°
2026-05-06 04:16 41.13480 -51.65292 37455 ft 551 kts 49°
2026-05-06 04:17 41.17918 -51.57029 37459 ft 551 kts 49°
2026-05-06 04:17 41.22379 -51.48700 37475 ft 551 kts 49°
2026-05-06 04:18 41.26804 -51.40416 37459 ft 550 kts 49°
2026-05-06 04:18 41.31201 -51.32162 37460 ft 549 kts 49°
2026-05-06 04:19 41.35623 -51.23840 37476 ft 549 kts 49°
2026-05-06 04:19 41.40008 -51.15562 37465 ft 547 kts 49°
2026-05-06 04:20 41.44400 -51.07252 37463 ft 546 kts 50°
2026-05-06 04:20 41.48756 -50.98988 37464 ft 546 kts 50°
2026-05-06 04:21 41.53084 -50.90743 37470 ft 537 kts 50°
2026-05-06 04:21 41.57337 -50.82629 37466 ft 535 kts 50°
2026-05-06 04:22 41.61622 -50.74440 37462 ft 536 kts 50°
2026-05-06 04:23 41.67990 -50.62221 37465 ft 536 kts 50°
2026-05-06 04:23 41.72260 -50.53999 37469 ft 535 kts 50°
2026-05-06 04:24 41.76482 -50.45843 37466 ft 533 kts 50°
2026-05-06 04:24 41.80690 -50.37697 37465 ft 533 kts 50°
2026-05-06 04:25 41.84895 -50.29534 37472 ft 532 kts 50°
2026-05-06 04:25 41.89082 -50.21382 37469 ft 530 kts 50°
2026-05-06 04:26 41.93291 -50.13173 37466 ft 533 kts 50°
2026-05-06 04:26 41.97472 -50.04990 37461 ft 532 kts 50°
2026-05-06 04:27 42.01272 -49.96381 37468 ft 534 kts 58°
2026-05-06 04:27 42.04569 -49.87461 37465 ft 535 kts 60°
2026-05-06 04:28 42.07785 -49.78432 37467 ft 535 kts 60°
2026-05-06 04:28 42.10987 -49.69391 37466 ft 531 kts 60°
2026-05-06 04:29 42.14159 -49.60449 37468 ft 531 kts 60°
2026-05-06 04:29 42.17353 -49.51444 37484 ft 531 kts 60°
2026-05-06 04:30 42.20507 -49.42524 37463 ft 528 kts 60°
2026-05-06 04:30 42.23663 -49.33569 37468 ft 527 kts 60°
2026-05-06 04:31 42.26790 -49.24669 37467 ft 527 kts 60°
2026-05-06 04:31 42.29914 -49.15749 37464 ft 525 kts 60°
2026-05-06 04:32 42.33021 -49.06845 37467 ft 524 kts 60°
2026-05-06 04:32 42.36136 -48.97893 37465 ft 524 kts 60°
2026-05-06 04:33 42.39218 -48.89005 37466 ft 524 kts 60°
2026-05-06 04:33 42.42325 -48.80020 37465 ft 526 kts 60°
2026-05-06 04:34 42.45411 -48.71063 37466 ft 527 kts 60°
2026-05-06 04:34 42.48491 -48.62093 37473 ft 526 kts 60°
2026-05-06 04:35 42.51570 -48.53094 37465 ft 524 kts 61°
2026-05-06 04:35 42.54617 -48.44164 37465 ft 523 kts 61°
2026-05-06 04:36 42.57672 -48.35183 37490 ft 523 kts 61°
2026-05-06 04:36 42.60703 -48.26242 37460 ft 523 kts 61°
2026-05-06 04:37 42.63742 -48.17248 37465 ft 522 kts 61°
2026-05-06 04:37 42.66757 -48.08294 37458 ft 523 kts 61°
2026-05-06 04:38 42.69781 -47.99287 37473 ft 523 kts 61°
2026-05-06 04:38 42.72783 -47.90312 37458 ft 522 kts 61°
2026-05-06 04:39 42.75792 -47.81289 37458 ft 522 kts 61°
2026-05-06 04:39 42.78783 -47.72289 37458 ft 522 kts 61°
2026-05-06 04:40 42.81747 -47.63335 37474 ft 519 kts 61°
2026-05-06 04:40 42.84722 -47.54325 37454 ft 519 kts 61°
2026-05-06 04:41 42.87669 -47.45371 37452 ft 519 kts 62°
2026-05-06 04:41 42.90599 -47.36436 37461 ft 518 kts 62°
2026-05-06 04:42 42.93531 -47.27464 37454 ft 518 kts 62°
2026-05-06 04:42 42.96473 -47.18435 37456 ft 518 kts 62°
2026-05-06 04:43 42.99381 -47.09477 37461 ft 518 kts 62°
2026-05-06 04:43 43.02298 -47.00461 37455 ft 517 kts 62°
2026-05-06 04:44 43.05195 -46.91478 37454 ft 517 kts 62°
2026-05-06 04:44 43.08078 -46.82510 37481 ft 517 kts 62°
2026-05-06 04:45 43.10968 -46.73487 37455 ft 515 kts 62°
2026-05-06 04:45 43.13821 -46.64546 37450 ft 515 kts 62°
2026-05-06 04:46 43.16676 -46.55576 37450 ft 515 kts 62°
2026-05-06 04:46 43.19540 -46.46545 37443 ft 515 kts 62°
2026-05-06 04:47 43.22380 -46.37558 37449 ft 517 kts 62°
2026-05-06 04:47 43.25230 -46.28508 37449 ft 517 kts 62°
2026-05-06 04:48 43.28080 -46.19427 37456 ft 517 kts 62°
2026-05-06 04:48 43.30905 -46.10390 37444 ft 516 kts 62°
2026-05-06 04:49 43.33734 -46.01313 37442 ft 516 kts 63°
2026-05-06 04:49 43.36540 -45.92280 37441 ft 516 kts 63°
2026-05-06 04:50 43.39360 -45.83170 37444 ft 515 kts 63°
2026-05-06 04:50 43.42141 -45.74150 37438 ft 514 kts 63°
2026-05-06 04:51 43.44935 -45.65061 37435 ft 514 kts 63°
2026-05-06 04:51 43.47711 -45.56001 37450 ft 514 kts 63°
2026-05-06 04:52 43.50491 -45.46890 37435 ft 513 kts 63°
2026-05-06 04:52 43.53240 -45.37851 37433 ft 513 kts 63°
2026-05-06 04:53 43.55985 -45.28796 37434 ft 513 kts 63°
2026-05-06 04:53 43.58720 -45.19741 37426 ft 512 kts 63°
2026-05-06 04:54 43.61455 -45.10649 37429 ft 511 kts 63°
2026-05-06 04:54 43.64178 -45.01572 37427 ft 511 kts 64°
2026-05-06 04:55 43.66883 -44.92520 37426 ft 511 kts 64°
2026-05-06 04:55 43.69137 -44.84953 37428 ft 512 kts 64°
2026-05-06 04:56 43.72283 -44.74352 37428 ft 512 kts 64°
2026-05-06 04:56 43.74531 -44.66753 37428 ft 512 kts 64°
2026-05-06 04:57 43.77209 -44.57668 37435 ft 511 kts 64°
2026-05-06 04:57 43.79892 -44.48529 37423 ft 509 kts 64°
2026-05-06 04:58 43.82545 -44.39463 37420 ft 509 kts 64°
2026-05-06 04:58 43.85191 -44.30390 37415 ft 509 kts 64°
2026-05-06 04:59 43.87839 -44.21278 37426 ft 509 kts 64°
2026-05-06 04:59 43.90478 -44.12159 37421 ft 508 kts 64°
2026-05-06 05:00 43.93098 -44.03079 37407 ft 508 kts 64°
2026-05-06 05:00 43.95708 -43.93995 37433 ft 508 kts 65°
2026-05-06 05:01 43.98319 -43.84883 37416 ft 510 kts 65°
2026-05-06 05:01 44.00939 -43.75699 37411 ft 510 kts 65°
2026-05-06 05:02 44.03553 -43.66505 37409 ft 510 kts 65°
2026-05-06 05:02 44.06143 -43.57357 37410 ft 510 kts 65°
2026-05-06 05:03 44.08729 -43.48192 37407 ft 510 kts 65°
2026-05-06 05:03 44.11319 -43.38980 37401 ft 510 kts 65°
2026-05-06 05:04 44.13886 -43.29816 37400 ft 510 kts 65°
2026-05-06 05:04 44.16458 -43.20596 37398 ft 509 kts 66°
2026-05-06 05:05 44.19007 -43.11427 37398 ft 509 kts 66°
2026-05-06 05:05 44.21566 -43.02185 37392 ft 509 kts 66°
2026-05-06 05:06 44.24097 -42.93014 37402 ft 509 kts 66°
2026-05-06 05:06 44.26643 -42.83749 37390 ft 509 kts 66°
2026-05-06 05:07 44.29157 -42.74570 37387 ft 509 kts 66°
2026-05-06 05:07 44.31684 -42.65306 37387 ft 509 kts 66°
2026-05-06 05:08 44.34193 -42.56076 37385 ft 511 kts 66°
2026-05-06 05:08 44.36708 -42.46784 37381 ft 512 kts 66°
2026-05-06 05:09 44.39226 -42.37445 37378 ft 513 kts 66°
2026-05-06 05:09 44.41727 -42.28135 37394 ft 512 kts 67°
2026-05-06 05:10 44.44215 -42.18835 37375 ft 512 kts 67°
2026-05-06 05:10 44.46717 -42.09448 37373 ft 513 kts 67°
2026-05-06 05:11 44.49197 -42.00104 37370 ft 513 kts 67°
2026-05-06 05:11 44.51668 -41.90759 37360 ft 512 kts 67°
2026-05-06 05:12 44.54134 -41.81400 37378 ft 512 kts 67°
2026-05-06 05:12 44.56601 -41.71994 37364 ft 512 kts 67°
2026-05-06 05:13 44.59046 -41.62637 37366 ft 512 kts 67°
2026-05-06 05:13 44.61480 -41.53286 37363 ft 512 kts 68°
2026-05-06 05:14 44.63926 -41.43852 37355 ft 512 kts 68°
2026-05-06 05:14 44.66345 -41.34484 37357 ft 512 kts 68°
2026-05-06 05:15 44.68770 -41.25053 37347 ft 512 kts 68°
2026-05-06 05:15 44.71182 -41.15639 37360 ft 514 kts 68°
2026-05-06 05:16 44.73599 -41.06163 37348 ft 514 kts 68°
2026-05-06 05:16 44.76014 -40.96657 37359 ft 514 kts 68°
2026-05-06 05:17 44.78406 -40.87203 37349 ft 514 kts 68°
2026-05-06 05:17 44.80795 -40.77724 37345 ft 515 kts 68°
2026-05-06 05:18 44.83173 -40.68248 37350 ft 515 kts 69°
2026-05-06 05:18 44.85557 -40.58710 37354 ft 515 kts 69°
2026-05-06 05:19 44.87923 -40.49200 37340 ft 515 kts 69°
2026-05-06 05:19 44.90292 -40.39644 37344 ft 515 kts 69°
2026-05-06 05:20 44.92639 -40.30132 37342 ft 515 kts 69°
2026-05-06 05:20 44.94990 -40.20566 37351 ft 515 kts 69°
2026-05-06 05:21 44.97319 -40.11050 37336 ft 515 kts 69°
2026-05-06 05:21 44.99656 -40.01462 37335 ft 515 kts 69°
2026-05-06 05:22 45.02029 -39.91895 37337 ft 515 kts 69°
2026-05-06 05:22 45.04419 -39.82399 37327 ft 515 kts 69°
2026-05-06 05:23 45.06833 -39.72772 37330 ft 518 kts 69°
2026-05-06 05:23 45.10414 -39.58369 37330 ft 518 kts 69°
2026-05-06 05:24 45.12788 -39.48761 37337 ft 518 kts 69°
2026-05-06 05:24 45.15169 -39.39080 37328 ft 519 kts 70°
2026-05-06 05:25 45.17528 -39.29448 37326 ft 519 kts 70°
2026-05-06 05:25 45.19893 -39.19752 37324 ft 519 kts 70°
2026-05-06 05:26 45.22239 -39.10092 37330 ft 519 kts 70°
2026-05-06 05:26 45.24592 -39.00364 37319 ft 520 kts 70°
2026-05-06 05:27 45.26922 -38.90686 37324 ft 520 kts 70°
2026-05-06 05:27 45.29249 -38.80981 37319 ft 520 kts 70°
2026-05-06 05:28 45.31581 -38.71209 37314 ft 520 kts 70°
2026-05-06 05:28 45.33885 -38.61514 37314 ft 520 kts 70°
2026-05-06 05:29 45.36196 -38.51749 37311 ft 520 kts 70°
2026-05-06 05:29 45.38500 -38.41968 37318 ft 520 kts 70°
2026-05-06 05:30 45.40780 -38.32244 37293 ft 521 kts 71°
2026-05-06 05:30 45.43073 -38.22425 37311 ft 524 kts 71°
2026-05-06 05:31 45.45366 -38.12559 37308 ft 524 kts 71°
2026-05-06 05:31 45.47645 -38.02711 37309 ft 524 kts 71°
2026-05-06 05:32 45.49926 -37.92804 37303 ft 524 kts 71°
2026-05-06 05:32 45.52180 -37.82976 37303 ft 524 kts 71°
2026-05-06 05:33 45.54442 -37.73067 37305 ft 524 kts 71°
2026-05-06 05:33 45.56684 -37.63195 37301 ft 524 kts 71°
2026-05-06 05:34 45.58928 -37.53275 37302 ft 524 kts 71°
2026-05-06 05:34 45.61152 -37.43393 37300 ft 524 kts 71°
2026-05-06 05:35 45.63384 -37.33432 37301 ft 524 kts 72°
2026-05-06 05:35 45.65593 -37.23527 37292 ft 525 kts 72°
2026-05-06 05:36 45.67795 -37.13607 37292 ft 525 kts 72°
2026-05-06 05:36 45.70000 -37.03625 37289 ft 525 kts 72°
2026-05-06 05:37 45.72182 -36.93702 37289 ft 525 kts 72°
2026-05-06 05:37 45.74368 -36.83716 37287 ft 525 kts 72°
2026-05-06 05:38 45.76534 -36.73767 37282 ft 526 kts 73°
2026-05-06 05:38 45.78719 -36.63689 37285 ft 528 kts 73°
2026-05-06 05:39 45.80883 -36.53661 37284 ft 528 kts 73°
2026-05-06 05:39 45.83040 -36.43614 37281 ft 529 kts 73°
2026-05-06 05:40 45.85199 -36.33510 37279 ft 529 kts 73°
2026-05-06 05:40 45.87343 -36.23422 37278 ft 529 kts 73°
2026-05-06 05:41 45.89472 -36.13359 37275 ft 530 kts 73°
2026-05-06 05:41 45.91613 -36.03188 37271 ft 530 kts 73°
2026-05-06 05:42 45.93731 -35.93080 37267 ft 529 kts 73°
2026-05-06 05:42 45.95836 -35.82976 37269 ft 530 kts 73°
2026-05-06 05:43 45.97595 -35.74501 37262 ft 531 kts 73°
2026-05-06 05:43 45.99704 -35.64288 37262 ft 531 kts 73°
2026-05-06 05:44 46.01783 -35.54167 37260 ft 531 kts 74°
2026-05-06 05:44 46.03875 -35.43933 37259 ft 531 kts 74°
2026-05-06 05:45 46.05947 -35.33746 37254 ft 532 kts 74°
2026-05-06 05:45 46.08019 -35.23504 37252 ft 532 kts 74°
2026-05-06 05:46 46.10072 -35.13307 37244 ft 533 kts 74°
2026-05-06 05:46 46.12134 -35.03010 37243 ft 534 kts 74°
2026-05-06 05:47 46.14175 -34.92763 37240 ft 534 kts 74°
2026-05-06 05:47 46.16209 -34.82498 37236 ft 533 kts 74°
2026-05-06 05:48 46.18247 -34.72160 37231 ft 533 kts 74°
2026-05-06 05:48 46.20274 -34.61821 37234 ft 533 kts 74°
2026-05-06 05:49 46.22276 -34.51557 37227 ft 533 kts 75°
2026-05-06 05:49 46.24283 -34.41214 37222 ft 533 kts 75°
2026-05-06 05:50 46.26270 -34.30916 37221 ft 533 kts 75°
2026-05-06 05:50 46.28255 -34.20569 37217 ft 533 kts 75°
2026-05-06 05:51 46.30219 -34.10282 37215 ft 533 kts 75°
2026-05-06 05:51 46.32189 -33.99901 37217 ft 533 kts 75°
2026-05-06 05:52 46.34140 -33.89566 37203 ft 533 kts 75°
2026-05-06 05:52 46.36179 -33.78708 37197 ft 533 kts 75°
2026-05-06 05:53 46.38107 -33.68379 37197 ft 533 kts 75°
2026-05-06 05:53 46.40036 -33.57989 37160 ft 533 kts 75°
2026-05-06 05:54 46.41946 -33.47639 37188 ft 533 kts 75°
2026-05-06 05:54 46.43858 -33.37222 37186 ft 533 kts 75°
2026-05-06 05:55 46.45754 -33.26834 37184 ft 533 kts 75°
2026-05-06 05:55 46.47639 -33.16451 37173 ft 533 kts 75°
2026-05-06 05:56 46.49515 -33.06059 37174 ft 533 kts 75°
2026-05-06 05:56 46.51388 -32.95617 37168 ft 533 kts 75°
2026-05-06 05:57 46.53240 -32.85236 37160 ft 533 kts 75°
2026-05-06 05:57 46.55092 -32.74800 37160 ft 533 kts 75°
2026-05-06 05:58 46.56926 -32.64397 37154 ft 533 kts 75°
2026-05-06 05:58 46.58764 -32.53913 37144 ft 533 kts 75°
2026-05-06 05:59 46.60578 -32.43508 37144 ft 533 kts 76°
2026-05-06 05:59 46.62393 -32.33029 37137 ft 533 kts 75°
2026-05-06 06:00 46.64189 -32.22602 37132 ft 533 kts 75°
2026-05-06 06:00 46.65976 -32.12164 37132 ft 533 kts 76°
2026-05-06 06:01 46.67767 -32.01643 37134 ft 533 kts 76°
2026-05-06 06:01 46.69533 -31.91209 37120 ft 533 kts 76°
2026-05-06 06:02 46.71299 -31.80701 37126 ft 533 kts 75°
2026-05-06 06:02 46.73056 -31.70191 37122 ft 533 kts 75°
2026-05-06 06:03 46.74794 -31.59728 37139 ft 533 kts 75°
2026-05-06 06:03 46.76524 -31.49247 37123 ft 534 kts 75°
2026-05-06 06:04 46.78263 -31.38652 37125 ft 534 kts 76°
2026-05-06 06:04 46.79975 -31.28149 37124 ft 534 kts 76°
2026-05-06 06:05 46.81691 -31.17557 37121 ft 534 kts 75°
2026-05-06 06:05 46.83379 -31.07068 37124 ft 533 kts 76°
2026-05-06 06:06 46.85071 -30.96494 37128 ft 533 kts 76°
2026-05-06 06:06 46.86745 -30.85967 37130 ft 533 kts 76°
2026-05-06 06:07 46.88406 -30.75449 37130 ft 534 kts 76°
2026-05-06 06:07 46.90077 -30.64801 37131 ft 536 kts 76°
2026-05-06 06:08 46.91727 -30.54221 37144 ft 536 kts 76°
2026-05-06 06:08 46.93384 -30.43557 37155 ft 536 kts 76°
2026-05-06 06:09 46.95025 -30.32957 37159 ft 537 kts 76°
2026-05-06 06:09 46.96514 -30.23321 37162 ft 537 kts 76°
2026-05-06 06:10 46.98105 -30.13001 37169 ft 537 kts 76°
2026-05-06 06:10 46.99750 -30.02304 37176 ft 538 kts 76°
2026-05-06 06:11 47.01382 -29.91606 37055 ft 541 kts 76°
2026-05-06 06:11 47.03019 -29.80776 37005 ft 543 kts 76°
2026-05-06 06:12 47.04628 -29.70022 37138 ft 540 kts 76°
2026-05-06 06:12 47.06223 -29.59232 37208 ft 540 kts 76°
2026-05-06 06:13 47.07767 -29.48444 37002 ft 546 kts 77°
2026-05-06 06:13 47.09280 -29.37470 36919 ft 548 kts 77°
2026-05-06 06:14 47.10738 -29.26498 37120 ft 543 kts 77°
2026-05-06 06:14 47.12125 -29.15647 37199 ft 543 kts 77°
2026-05-06 06:15 47.13453 -29.04724 37077 ft 546 kts 78°
2026-05-06 06:15 47.14736 -28.93666 37043 ft 547 kts 79°
2026-05-06 06:16 47.15957 -28.82706 37125 ft 545 kts 79°
2026-05-06 06:16 47.17127 -28.71726 37157 ft 545 kts 79°
2026-05-06 06:17 47.18060 -28.62511 37065 ft 547 kts 79°
2026-05-06 06:17 47.19167 -28.51465 37039 ft 548 kts 78°
2026-05-06 06:18 47.20304 -28.40379 37147 ft 545 kts 78°
2026-05-06 06:18 47.21434 -28.29391 37167 ft 545 kts 78°
2026-05-06 06:19 47.22562 -28.18317 37069 ft 547 kts 78°
2026-05-06 06:19 47.23661 -28.07268 37025 ft 547 kts 79°
2026-05-06 06:20 47.24720 -27.96146 37082 ft 546 kts 79°
2026-05-06 06:20 47.25706 -27.85127 37180 ft 544 kts 80°
2026-05-06 06:21 47.26605 -27.74102 37262 ft 541 kts 81°
2026-05-06 06:21 47.27422 -27.63087 37121 ft 544 kts 81°
2026-05-06 06:22 47.27805 -27.57529 37010 ft 546 kts 82°
2026-05-06 06:22 47.28171 -27.51946 36940 ft 548 kts 82°
2026-05-06 06:22 47.28829 -27.40790 37125 ft 543 kts 82°
2026-05-06 06:23 47.29113 -27.35250 37300 ft 539 kts 83°
2026-05-06 06:23 47.29365 -27.29817 37405 ft 536 kts 83°
2026-05-06 06:23 47.29782 -27.18847 37377 ft 536 kts 84°
2026-05-06 06:24 47.29951 -27.13323 37236 ft 539 kts 84°
2026-05-06 06:24 47.30094 -27.07853 37087 ft 542 kts 85°
2026-05-06 06:24 47.30307 -26.96719 37096 ft 541 kts 85°
2026-05-06 06:25 47.30367 -26.91193 37314 ft 535 kts 86°
2026-05-06 06:25 47.30397 -26.85728 37528 ft 530 kts 86°
2026-05-06 06:26 47.30322 -26.69486 37370 ft 533 kts 88°
2026-05-06 06:26 47.30251 -26.63976 37107 ft 539 kts 88°
2026-05-06 06:26 47.30229 -26.62572 37046 ft 540 kts 88°
2026-05-06 06:26 47.30186 -26.59969 36937 ft 543 kts 88°
2026-05-06 06:27 47.30074 -26.54370 36836 ft 545 kts 89°
2026-05-06 06:27 47.29773 -26.43328 37070 ft 539 kts 89°
2026-05-06 06:27 47.29583 -26.37834 37262 ft 533 kts 89°
2026-05-06 06:28 47.29359 -26.32366 37459 ft 529 kts 90°
2026-05-06 06:28 47.28761 -26.20807 37452 ft 530 kts 91°
2026-05-06 06:28 47.28432 -26.15388 37230 ft 534 kts 92°
2026-05-06 06:29 47.28071 -26.09905 36989 ft 539 kts 92°
2026-05-06 06:29 47.27683 -26.04396 36822 ft 543 kts 93°
2026-05-06 06:29 47.27266 -25.98849 36791 ft 543 kts 94°
2026-05-06 06:30 47.26364 -25.87829 37024 ft 537 kts 94°
2026-05-06 06:30 47.25888 -25.82461 37146 ft 535 kts 95°
2026-05-06 06:30 47.25382 -25.77013 37195 ft 534 kts 95°
2026-05-06 06:31 47.24320 -25.66203 36950 ft 539 kts 95°
2026-05-06 06:31 47.23746 -25.60724 36804 ft 542 kts 96°
2026-05-06 06:31 47.23140 -25.55271 36684 ft 545 kts 96°
2026-05-06 06:32 47.21813 -25.44247 36682 ft 545 kts 97°
2026-05-06 06:32 47.21102 -25.38769 36785 ft 543 kts 98°
2026-05-06 06:32 47.20370 -25.33377 36869 ft 541 kts 98°
2026-05-06 06:33 47.18815 -25.22594 36875 ft 541 kts 99°
2026-05-06 06:33 47.17145 -25.11783 36680 ft 546 kts 101°
2026-05-06 06:34 47.15353 -25.00903 36583 ft 547 kts 101°
2026-05-06 06:34 47.13401 -24.90082 36736 ft 545 kts 103°
2026-05-06 06:35 47.11308 -24.79442 36767 ft 544 kts 104°
2026-05-06 06:35 47.09064 -24.68830 36599 ft 548 kts 105°
2026-05-06 06:36 47.06657 -24.58141 36541 ft 550 kts 107°
2026-05-06 06:36 47.04147 -24.47627 36696 ft 546 kts 107°
2026-05-06 06:36 47.02839 -24.42386 36835 ft 543 kts 108°
2026-05-06 06:37 47.01522 -24.37259 36909 ft 541 kts 109°
2026-05-06 06:37 46.98775 -24.26985 36757 ft 545 kts 110°
2026-05-06 06:37 46.97341 -24.21816 36595 ft 548 kts 110°
2026-05-06 06:38 46.95864 -24.16622 36498 ft 550 kts 111°
2026-05-06 06:38 46.92839 -24.06360 36544 ft 549 kts 112°
2026-05-06 06:39 46.89682 -23.96268 36684 ft 546 kts 113°
2026-05-06 06:39 46.86350 -23.86278 36701 ft 546 kts 115°
2026-05-06 06:40 46.82857 -23.76407 36614 ft 547 kts 116°
2026-05-06 06:40 46.79223 -23.66671 36550 ft 549 kts 117°
2026-05-06 06:41 46.75435 -23.56970 36529 ft 549 kts 118°
2026-05-06 06:41 46.71557 -23.47428 36512 ft 549 kts 120°
2026-05-06 06:42 46.67550 -23.37938 36483 ft 549 kts 121°
2026-05-06 06:42 46.63449 -23.28585 36415 ft 551 kts 121°
2026-05-06 06:43 46.59218 -23.19288 36507 ft 548 kts 122°
2026-05-06 06:43 46.54931 -23.10202 36629 ft 545 kts 123°
2026-05-06 06:44 46.50547 -23.01233 36523 ft 547 kts 124°
2026-05-06 06:44 46.46794 -22.93791 36359 ft 550 kts 126°
2026-05-06 06:45 46.42153 -22.84873 36341 ft 550 kts 127°
2026-05-06 06:45 46.37483 -22.76202 36473 ft 547 kts 128°
2026-05-06 06:46 46.32727 -22.67669 36463 ft 547 kts 128°
2026-05-06 06:46 46.27817 -22.59143 36287 ft 550 kts 129°
2026-05-06 06:47 46.22831 -22.50755 36228 ft 551 kts 130°
2026-05-06 06:47 46.17788 -22.42514 36463 ft 545 kts 131°
2026-05-06 06:47 46.15243 -22.38433 36593 ft 542 kts 131°
2026-05-06 06:48 46.12733 -22.34463 36619 ft 541 kts 131°
2026-05-06 06:48 46.07586 -22.26476 36432 ft 545 kts 132°
2026-05-06 06:48 46.04966 -22.22488 36269 ft 548 kts 133°
2026-05-06 06:49 46.02315 -22.18506 36202 ft 550 kts 133°
2026-05-06 06:49 45.97009 -22.10677 36255 ft 548 kts 134°
2026-05-06 06:50 45.91633 -22.02923 36412 ft 544 kts 134°
2026-05-06 06:50 45.86249 -21.95340 36339 ft 545 kts 135°
2026-05-06 06:50 45.83497 -21.91540 36231 ft 548 kts 135°
2026-05-06 06:51 45.80755 -21.87808 36133 ft 550 kts 136°
2026-05-06 06:51 45.75117 -21.80298 36065 ft 551 kts 137°
2026-05-06 06:52 45.69471 -21.72990 36188 ft 547 kts 137°
2026-05-06 06:52 45.63779 -21.65838 36223 ft 546 kts 138°
2026-05-06 06:53 45.57951 -21.58723 36070 ft 550 kts 139°
2026-05-06 06:53 45.52081 -21.51756 35981 ft 552 kts 140°
2026-05-06 06:54 45.46135 -21.44900 36105 ft 549 kts 141°
2026-05-06 06:54 45.43155 -21.41506 36248 ft 545 kts 141°
2026-05-06 06:54 45.40191 -21.38151 36377 ft 542 kts 141°
2026-05-06 06:55 45.34258 -21.31513 36363 ft 542 kts 141°
2026-05-06 06:55 45.31312 -21.28264 36226 ft 545 kts 142°
2026-05-06 06:55 45.28277 -21.24952 36072 ft 549 kts 142°
2026-05-06 06:56 45.22187 -21.18424 35986 ft 550 kts 143°
2026-05-06 06:56 45.16054 -21.12015 36192 ft 545 kts 143°
2026-05-06 06:57 45.09890 -21.05756 36249 ft 543 kts 144°
2026-05-06 06:57 45.03693 -20.99646 36065 ft 547 kts 145°
2026-05-06 06:58 44.97376 -20.93601 35938 ft 550 kts 146°
2026-05-06 06:58 44.90970 -20.87658 36051 ft 547 kts 147°
2026-05-06 06:59 44.84589 -20.81921 36124 ft 545 kts 148°
2026-05-06 06:59 44.78103 -20.76271 36057 ft 546 kts 149°
2026-05-06 07:00 44.71585 -20.70762 35931 ft 549 kts 149°
2026-05-06 07:00 44.65016 -20.65378 35957 ft 548 kts 150°
2026-05-06 07:01 44.58384 -20.60109 36081 ft 545 kts 151°
2026-05-06 07:01 44.51773 -20.55021 36099 ft 544 kts 152°
2026-05-06 07:02 44.45091 -20.50037 35994 ft 546 kts 153°